EZY1014 GMMX-LFBO

Flight info

Callsign EZY1014
Flight time N/A
Altitude 36000
Route OBOGA UG850 VALBA UZ801 TOLSI UG5 KORIS L27 VJF N871 RONNY/N0390F280 N871 TOPTU
Aircraft A320/M-SDE3FGHIRWY/LB1

Departure

Time 2026-05-04 06:48
Airport Marrakesh Menara Airport (GMMX)

Arrival

Time N/A
Airport Toulouse-Blagnac Airport (LFBO)
Time Latitude Longitude Altitude Speed Heading
2026-05-04 06:25 31.60185 -8.02301 1537 ft 0 kts 274°
2026-05-04 06:42 31.60184 -8.02282 1532 ft 4 kts 277°
2026-05-04 06:44 31.60147 -8.02215 1541 ft 0 kts
2026-05-04 06:45 31.60177 -8.02211 1541 ft 9 kts
2026-05-04 06:45 31.60266 -8.02201 1538 ft 17 kts
2026-05-04 06:45 31.60388 -8.02177 1538 ft 19 kts 14°
2026-05-04 06:46 31.60513 -8.02156 1537 ft 13 kts
2026-05-04 06:46 31.60563 -8.02208 1534 ft 10 kts 276°
2026-05-04 06:46 31.60564 -8.02220 1540 ft 0 kts 277°
2026-05-04 06:46 31.60577 -8.02365 1534 ft 53 kts 276°
2026-05-04 06:48 31.61425 -8.11859 3731 ft 236 kts 276°
2026-05-04 06:48 31.61596 -8.13810 4444 ft 244 kts 276°
2026-05-04 06:49 31.61805 -8.15806 5244 ft 249 kts 283°
2026-05-04 06:50 31.70982 -8.15695 10562 ft 278 kts 79°
2026-05-04 06:51 31.71277 -8.13436 11258 ft 282 kts 82°
2026-05-04 06:51 31.71564 -8.11139 11950 ft 287 kts 83°
2026-05-04 06:51 31.71858 -8.08802 12627 ft 291 kts 83°
2026-05-04 06:51 31.72157 -8.06429 13308 ft 295 kts 83°
2026-05-04 06:52 31.72463 -8.04031 13983 ft 299 kts 82°
2026-05-04 06:52 31.72777 -8.01599 14650 ft 303 kts 82°
2026-05-04 06:52 31.73096 -7.99137 15317 ft 306 kts 82°
2026-05-04 06:52 31.73588 -7.96694 15931 ft 311 kts 69°
2026-05-04 06:53 31.74599 -7.94412 16323 ft 324 kts 53°
2026-05-04 06:53 31.76070 -7.92289 16462 ft 345 kts 49°
2026-05-04 06:53 31.77661 -7.90066 16579 ft 365 kts 49°
2026-05-04 06:53 31.79336 -7.87717 16786 ft 382 kts 50°
2026-05-04 06:54 31.81051 -7.85297 17277 ft 389 kts 50°
2026-05-04 06:54 31.82788 -7.82837 17846 ft 392 kts 50°
2026-05-04 06:54 31.84550 -7.80361 18418 ft 396 kts 49°
2026-05-04 06:54 31.86375 -7.77920 18963 ft 399 kts 47°
2026-05-04 06:55 31.88254 -7.75498 19499 ft 403 kts 46°
2026-05-04 06:55 31.90167 -7.73072 20011 ft 406 kts 46°
2026-05-04 06:55 31.92072 -7.70658 20529 ft 410 kts 46°
2026-05-04 06:55 31.94038 -7.68155 21035 ft 413 kts 46°
2026-05-04 06:56 31.95959 -7.65689 21510 ft 416 kts 47°
2026-05-04 06:57 32.11646 -7.50476 24488 ft 430 kts 10°
2026-05-04 06:58 32.14599 -7.49996 24879 ft 428 kts 359°
2026-05-04 06:58 32.17580 -7.49994 25263 ft 429 kts 356°
2026-05-04 06:58 32.20575 -7.50025 25637 ft 432 kts 356°
2026-05-04 06:58 32.23591 -7.50052 26010 ft 435 kts 356°
2026-05-04 06:59 32.26622 -7.50076 26386 ft 437 kts 356°
2026-05-04 06:59 32.29667 -7.50096 26752 ft 439 kts 356°
2026-05-04 06:59 32.32724 -7.50113 27103 ft 441 kts 356°
2026-05-04 06:59 32.35802 -7.50129 27447 ft 443 kts 357°
2026-05-04 07:01 32.57730 -7.50267 29682 ft 456 kts 356°
2026-05-04 07:01 32.60913 -7.50290 29957 ft 458 kts 356°
2026-05-04 07:02 32.64111 -7.50314 30226 ft 460 kts 356°
2026-05-04 07:02 32.67321 -7.50344 30491 ft 462 kts 356°
2026-05-04 07:02 32.70543 -7.50373 30751 ft 464 kts 356°
2026-05-04 07:02 32.73779 -7.50396 31006 ft 466 kts 356°
2026-05-04 07:03 32.77024 -7.50417 31265 ft 467 kts 356°
2026-05-04 07:03 32.80270 -7.50434 31617 ft 466 kts 356°
2026-05-04 07:03 32.83509 -7.50450 31970 ft 465 kts 356°
2026-05-04 07:03 32.86741 -7.50464 32308 ft 464 kts 356°
2026-05-04 07:04 32.89965 -7.50478 32636 ft 463 kts 356°
2026-05-04 07:04 32.93187 -7.50496 32964 ft 462 kts 356°
2026-05-04 07:04 32.96404 -7.50514 33282 ft 462 kts 356°
2026-05-04 07:04 32.99616 -7.50534 33591 ft 461 kts 356°
2026-05-04 07:05 33.02825 -7.50552 33899 ft 460 kts 356°
2026-05-04 07:05 33.06028 -7.50571 34214 ft 460 kts 356°
2026-05-04 07:05 33.09223 -7.50582 34523 ft 460 kts 358°
2026-05-04 07:05 33.12423 -7.50224 34808 ft 464 kts
2026-05-04 07:06 33.18696 -7.48293 35337 ft 466 kts 12°
2026-05-04 07:06 33.21777 -7.47286 35580 ft 465 kts 12°
2026-05-04 07:06 33.24898 -7.46270 35815 ft 465 kts 12°
2026-05-04 07:07 33.28025 -7.45251 36029 ft 466 kts 12°
2026-05-04 07:09 33.52817 -7.37154 36094 ft 461 kts 12°
2026-05-04 07:09 33.59006 -7.35119 36092 ft 461 kts 12°
2026-05-04 07:10 33.65196 -7.33075 36092 ft 461 kts 12°
2026-05-04 07:12 33.88907 -7.25267 36091 ft 461 kts 12°
2026-05-04 07:12 33.95096 -7.23212 36090 ft 461 kts 12°
2026-05-04 07:13 34.01281 -7.21154 36095 ft 461 kts 11°
2026-05-04 07:13 34.07472 -7.19103 36088 ft 461 kts 11°
2026-05-04 07:14 34.22953 -7.13943 36081 ft 462 kts 11°
2026-05-04 07:15 34.29149 -7.11871 36082 ft 462 kts 11°
2026-05-04 07:15 34.35343 -7.09798 36083 ft 462 kts 11°
2026-05-04 07:16 34.41541 -7.07725 36083 ft 462 kts 11°
2026-05-04 07:16 34.47738 -7.05646 36084 ft 462 kts 11°
2026-05-04 07:17 34.53938 -7.03561 36086 ft 462 kts 11°
2026-05-04 07:17 34.60073 -7.01363 36083 ft 465 kts 18°
2026-05-04 07:18 34.65920 -6.97916 36085 ft 468 kts 23°
2026-05-04 07:18 34.71737 -6.94350 36084 ft 468 kts 23°
2026-05-04 07:19 34.77560 -6.90784 36084 ft 469 kts 23°
2026-05-04 07:19 34.83379 -6.87204 36086 ft 469 kts 23°
2026-05-04 07:20 34.89196 -6.83618 36086 ft 468 kts 23°
2026-05-04 07:20 34.95008 -6.80035 36083 ft 468 kts 23°
2026-05-04 07:22 35.18281 -6.65637 36079 ft 469 kts 23°
2026-05-04 07:23 35.24100 -6.62013 36079 ft 470 kts 23°
2026-05-04 07:23 35.29879 -6.58405 36079 ft 469 kts 23°
2026-05-04 07:24 35.35695 -6.54770 36078 ft 469 kts 23°
2026-05-04 07:24 35.41522 -6.51136 36077 ft 470 kts 23°
2026-05-04 07:26 35.64647 -6.36118 36062 ft 470 kts 24°
2026-05-04 07:27 35.70422 -6.32337 36068 ft 470 kts 24°
2026-05-04 07:27 35.76209 -6.28558 36064 ft 471 kts 24°
2026-05-04 07:28 35.82001 -6.24789 36062 ft 471 kts 24°
2026-05-04 07:28 35.87797 -6.21032 36064 ft 471 kts 24°
2026-05-04 07:29 35.93604 -6.17283 36067 ft 471 kts 24°
2026-05-04 07:29 35.99413 -6.13536 36063 ft 471 kts 24°
2026-05-04 07:30 36.05178 -6.09800 36066 ft 471 kts 24°
2026-05-04 07:30 36.10975 -6.06022 36068 ft 471 kts 24°
2026-05-04 07:31 36.16772 -6.02234 36070 ft 471 kts 24°
2026-05-04 07:33 36.34577 -5.84236 36058 ft 479 kts 43°
2026-05-04 07:33 36.36924 -5.81298 36056 ft 479 kts 43°
2026-05-04 07:33 36.41609 -5.75410 36054 ft 479 kts 43°
2026-05-04 07:34 36.46288 -5.69510 36059 ft 479 kts 43°
2026-05-04 07:34 36.50968 -5.63615 36057 ft 479 kts 43°
2026-05-04 07:35 36.55646 -5.57713 36061 ft 479 kts 43°
2026-05-04 07:35 36.60319 -5.51803 36054 ft 479 kts 43°
2026-05-04 07:36 36.64982 -5.45878 36058 ft 479 kts 43°
2026-05-04 07:38 36.83588 -5.22183 36048 ft 479 kts 43°
2026-05-04 07:38 36.88242 -5.16233 36042 ft 479 kts 43°
2026-05-04 07:39 36.92889 -5.10264 36047 ft 479 kts 43°
2026-05-04 07:39 36.97532 -5.04292 36047 ft 479 kts 43°
2026-05-04 07:40 37.02178 -4.98310 36035 ft 479 kts 43°
2026-05-04 07:40 37.07384 -4.93242 36036 ft 472 kts 25°
2026-05-04 07:41 37.13342 -4.89942 36035 ft 468 kts 18°
2026-05-04 07:41 37.19360 -4.86802 36038 ft 469 kts 19°
2026-05-04 07:42 37.25377 -4.83647 36042 ft 469 kts 19°
2026-05-04 07:42 37.31405 -4.80486 36051 ft 469 kts 19°
2026-05-04 07:43 37.37429 -4.77327 36044 ft 469 kts 19°
2026-05-04 07:43 37.43464 -4.74158 36047 ft 469 kts 19°
2026-05-04 07:44 37.49493 -4.70986 36037 ft 469 kts 19°
2026-05-04 07:44 37.55524 -4.67812 36036 ft 470 kts 19°
2026-05-04 07:45 37.61560 -4.64628 36042 ft 470 kts 19°
2026-05-04 07:45 37.67545 -4.61464 36046 ft 470 kts 19°
2026-05-04 07:46 37.73612 -4.58251 36044 ft 469 kts 19°
2026-05-04 07:46 37.79586 -4.55080 36034 ft 469 kts 19°
2026-05-04 07:47 37.85604 -4.51884 36036 ft 469 kts 19°
2026-05-04 07:49 38.09675 -4.39033 36035 ft 469 kts 19°
2026-05-04 07:49 38.15694 -4.35804 36036 ft 470 kts 19°
2026-05-04 07:50 38.21709 -4.32564 36036 ft 469 kts 19°
2026-05-04 07:50 38.27724 -4.29317 36036 ft 469 kts 19°
2026-05-04 07:51 38.33737 -4.26073 36047 ft 469 kts 19°
2026-05-04 07:51 38.39753 -4.22821 36049 ft 470 kts 19°
2026-05-04 07:52 38.45768 -4.19570 36043 ft 470 kts 19°
2026-05-04 07:52 38.51785 -4.16309 36050 ft 470 kts 19°
2026-05-04 07:54 38.75852 -4.03201 36045 ft 470 kts 19°
2026-05-04 07:55 38.81865 -3.99910 36046 ft 470 kts 19°
2026-05-04 07:55 38.87885 -3.96614 36051 ft 470 kts 19°
2026-05-04 07:56 38.93898 -3.93321 36049 ft 470 kts 19°
2026-05-04 07:56 38.99864 -3.90034 36053 ft 470 kts 20°
2026-05-04 07:57 39.05867 -3.86722 36037 ft 469 kts 20°
2026-05-04 07:57 39.11864 -3.83409 36034 ft 469 kts 20°
2026-05-04 07:58 39.17869 -3.80082 36029 ft 469 kts 20°
2026-05-04 07:58 39.22899 -3.77294 36028 ft 470 kts 20°
2026-05-04 07:59 39.28865 -3.73982 36027 ft 470 kts 20°
2026-05-04 07:59 39.34880 -3.70637 36027 ft 470 kts 20°
2026-05-04 08:00 39.40886 -3.67294 36022 ft 470 kts 20°
2026-05-04 08:02 39.64903 -3.53843 36015 ft 470 kts 20°
2026-05-04 08:02 39.70902 -3.50464 36014 ft 470 kts 20°
2026-05-04 08:03 39.76894 -3.47063 36012 ft 470 kts 22°
2026-05-04 08:03 39.82504 -3.42620 36011 ft 474 kts 31°
2026-05-04 08:04 39.88004 -3.37896 36010 ft 474 kts 31°
2026-05-04 08:04 39.93507 -3.33162 36007 ft 474 kts 31°
2026-05-04 08:05 39.99007 -3.28433 36006 ft 474 kts 31°
2026-05-04 08:05 40.04510 -3.23695 36009 ft 474 kts 31°
2026-05-04 08:06 40.10003 -3.18928 36011 ft 473 kts 31°
2026-05-04 08:06 40.15484 -3.14164 36013 ft 473 kts 31°
2026-05-04 08:08 40.37393 -2.95083 36011 ft 472 kts 31°
2026-05-04 08:11 40.61922 -2.73523 36012 ft 472 kts 32°
2026-05-04 08:11 40.70095 -2.66296 36015 ft 472 kts 32°
2026-05-04 08:12 40.75553 -2.61484 36016 ft 472 kts 32°
2026-05-04 08:12 40.81000 -2.56656 36016 ft 472 kts 32°
2026-05-04 08:13 40.86437 -2.51812 36015 ft 471 kts 32°
2026-05-04 08:13 40.91871 -2.46969 36014 ft 471 kts 32°
2026-05-04 08:14 40.97300 -2.42118 36012 ft 471 kts 32°
2026-05-04 08:16 41.18025 -2.20881 36004 ft 471 kts 38°
2026-05-04 08:16 41.23098 -2.15468 36005 ft 471 kts 37°
2026-05-04 08:17 41.28221 -2.10050 36009 ft 471 kts 37°
2026-05-04 08:17 41.33366 -2.04572 36011 ft 470 kts 37°
2026-05-04 08:19 41.53663 -1.82711 36011 ft 469 kts 38°
2026-05-04 08:20 41.58735 -1.77236 36011 ft 468 kts 38°
2026-05-04 08:20 41.63794 -1.71749 36012 ft 468 kts 38°
2026-05-04 08:21 41.68855 -1.66251 36000 ft 468 kts 38°
2026-05-04 08:21 41.73907 -1.60751 35998 ft 468 kts 38°
2026-05-04 08:22 41.78967 -1.55249 35993 ft 468 kts 38°
2026-05-04 08:24 41.99126 -1.33130 35980 ft 468 kts 38°
2026-05-04 08:24 42.04161 -1.27572 35983 ft 468 kts 38°
2026-05-04 08:25 42.09197 -1.22014 35993 ft 468 kts 38°
2026-05-04 08:25 42.14227 -1.16456 35983 ft 468 kts 39°
2026-05-04 08:27 42.34281 -0.94161 35987 ft 467 kts 39°
2026-05-04 08:28 42.39292 -0.88567 35985 ft 467 kts 39°
2026-05-04 08:28 42.44016 -0.82553 35981 ft 467 kts 51°
2026-05-04 08:29 42.47981 -0.75573 35978 ft 467 kts 52°
2026-05-04 08:31 42.63833 -0.47601 35978 ft 468 kts 53°
2026-05-04 08:33 42.79731 -0.19264 35969 ft 472 kts 53°
2026-05-04 08:35 42.95522 0.09384 35999 ft 472 kts 53°
2026-05-04 08:35 42.99422 0.16510 35998 ft 470 kts 53°
2026-05-04 08:37 43.13076 0.41521 35997 ft 468 kts 53°
2026-05-04 08:38 43.16952 0.48674 35991 ft 468 kts 53°
2026-05-04 08:38 43.20823 0.55841 35986 ft 468 kts 53°
2026-05-04 08:40 43.30861 0.82666 35971 ft 457 kts 95°
2026-05-04 08:40 43.30692 0.87029 35967 ft 458 kts 95°
2026-05-04 08:41 43.30347 0.95765 35967 ft 459 kts 95°
2026-05-04 08:41 43.30059 1.03046 35969 ft 460 kts 95°
2026-05-04 08:42 43.29713 1.11804 35971 ft 459 kts 95°
2026-05-04 08:42 43.29920 1.20535 35985 ft 462 kts 72°
2026-05-04 08:42 43.31367 1.24449 35971 ft 461 kts 51°
2026-05-04 08:43 43.33704 1.27405 35961 ft 457 kts 29°
2026-05-04 08:43 43.39083 1.31817 35978 ft 442 kts 46°
2026-05-04 08:43 43.40767 1.35228 35968 ft 424 kts 70°
2026-05-04 08:44 43.41364 1.39102 35970 ft 411 kts 93°
2026-05-04 08:46 43.52788 1.53609 35978 ft 385 kts 305°
2026-05-04 08:46 43.55840 1.47542 35981 ft 386 kts 301°
2026-05-04 08:47 43.58870 1.41406 35976 ft 388 kts 305°
2026-05-04 08:47 43.60802 1.38793 35972 ft 393 kts 320°
2026-05-04 08:47 43.62983 1.36505 35971 ft 394 kts 319°
2026-05-04 08:48 43.67368 1.31947 35970 ft 395 kts 323°
2026-05-04 08:48 43.69502 1.29595 35971 ft 390 kts 310°
2026-05-04 08:48 43.71180 1.26681 35971 ft 386 kts 300°
2026-05-04 08:49 43.73817 1.20234 35971 ft 385 kts 295°
2026-05-04 08:50 43.75050 1.00050 35979 ft 372 kts 243°
2026-05-04 08:50 43.73939 0.96822 35982 ft 372 kts 244°
2026-05-04 08:51 43.71477 0.90585 35977 ft 369 kts 223°
2026-05-04 08:51 43.69322 0.88709 35977 ft 371 kts 199°
2026-05-04 08:51 43.66759 0.88286 35980 ft 377 kts 174°
2026-05-04 08:52 43.64245 0.89363 35979 ft 384 kts 156°
2026-05-04 08:52 43.61853 0.91053 35980 ft 387 kts 156°
2026-05-04 08:52 43.57058 0.94463 35979 ft 388 kts 156°